TimeCST,TemperatureF,Dew PointF,Humidity,Sea Level PressureIn,VisibilityMPH,Wind Direction,Wind SpeedMPH,Gust SpeedMPH,PrecipitationIn,Events,Conditions,WindDirDegrees,DateUTC
12:15 AM,50.0,21.2,32,29.87,10.0,South,23.0,33.4,N/A,,Clear,180,2012-12-06 06:15:00
12:35 AM,50.0,21.2,32,29.86,10.0,South,21.9,27.6,N/A,,Clear,190,2012-12-06 06:35:00
12:55 AM,50.0,21.2,32,29.86,10.0,South,20.7,28.8,N/A,,Clear,190,2012-12-06 06:55:00
1:15 AM,50.0,21.2,32,29.84,10.0,SSW,13.8,21.9,N/A,,Clear,200,2012-12-06 07:15:00
1:35 AM,50.0,21.2,32,29.83,10.0,SSW,11.5,17.3,N/A,,Clear,210,2012-12-06 07:35:00
1:55 AM,50.0,21.2,32,29.82,10.0,SSW,16.1,20.7,N/A,,Clear,200,2012-12-06 07:55:00
2:15 AM,50.0,21.2,32,29.83,10.0,SSW,10.4,18.4,N/A,,Clear,200,2012-12-06 08:15:00
2:35 AM,50.0,21.2,32,29.82,10.0,SW,11.5,18.4,N/A,,Clear,220,2012-12-06 08:35:00
2:55 AM,48.2,21.2,34,29.81,10.0,SW,13.8,18.4,N/A,,Clear,230,2012-12-06 08:55:00
3:15 AM,46.4,21.2,37,29.81,10.0,SW,9.2,-,N/A,,Clear,220,2012-12-06 09:15:00
3:35 AM,44.6,21.2,39,29.79,10.0,SSW,10.4,-,N/A,,Clear,210,2012-12-06 09:35:00
7:35 AM,35.6,21.2,56,29.76,10.0,WSW,3.5,-,N/A,,Clear,240,2012-12-06 13:35:00
7:55 AM,37.4,23.0,56,29.77,10.0,WNW,4.6,-,N/A,,Clear,300,2012-12-06 13:55:00
8:15 AM,41.0,23.0,49,29.77,10.0,NW,4.6,-,N/A,,Clear,310,2012-12-06 14:15:00
8:35 AM,44.6,26.6,49,29.77,10.0,WNW,11.5,-,N/A,,Clear,300,2012-12-06 14:35:00
8:55 AM,46.4,26.6,46,29.79,10.0,WNW,12.7,-,N/A,,Clear,300,2012-12-06 14:55:00
9:15 AM,46.4,26.6,46,29.80,10.0,WNW,12.7,-,N/A,,Clear,300,2012-12-06 15:15:00
9:35 AM,44.6,26.6,49,29.80,10.0,WNW,9.2,-,N/A,,Clear,300,2012-12-06 15:35:00
9:55 AM,46.4,24.8,43,29.81,10.0,NW,15.0,-,N/A,,Clear,320,2012-12-06 15:55:00
10:15 AM,50.0,24.8,37,29.81,10.0,NNW,15.0,18.4,N/A,,Clear,330,2012-12-06 16:15:00
10:35 AM,53.6,24.8,33,29.81,10.0,North,12.7,18.4,N/A,,Clear,350,2012-12-06 16:35:00
10:55 AM,53.6,23.0,30,29.81,10.0,North,16.1,20.7,N/A,,Clear,350,2012-12-06 16:55:00
11:15 AM,53.6,23.0,30,29.82,10.0,North,17.3,-,N/A,,Clear,350,2012-12-06 17:15:00
11:35 AM,55.4,23.0,29,29.82,10.0,North,16.1,19.6,N/A,,Clear,350,2012-12-06 17:35:00
11:55 AM,55.4,23.0,29,29.82,10.0,North,12.7,18.4,N/A,,Clear,10,2012-12-06 17:55:00
12:15 PM,59.0,23.0,25,29.81,10.0,North,18.4,23.0,N/A,,Clear,360,2012-12-06 18:15:00
12:35 PM,59.0,23.0,25,29.81,10.0,North,16.1,21.9,N/A,,Clear,10,2012-12-06 18:35:00
12:55 PM,59.0,24.8,27,29.81,10.0,North,18.4,23.0,N/A,,Clear,360,2012-12-06 18:55:00
1:15 PM,60.8,24.8,25,29.80,10.0,North,17.3,24.2,N/A,,Clear,360,2012-12-06 19:15:00
1:35 PM,60.8,24.8,25,29.80,10.0,North,15.0,19.6,N/A,,Clear,10,2012-12-06 19:35:00
1:55 PM,60.8,24.8,25,29.81,10.0,North,13.8,19.6,N/A,,Clear,10,2012-12-06 19:55:00
2:15 PM,60.8,24.8,25,29.81,10.0,North,15.0,21.9,N/A,,Clear,350,2012-12-06 20:15:00
2:35 PM,60.8,24.8,25,29.81,10.0,North,16.1,20.7,N/A,,Clear,360,2012-12-06 20:35:00
2:55 PM,60.8,23.0,23,29.81,10.0,North,15.0,21.9,N/A,,Clear,360,2012-12-06 20:55:00
3:15 PM,60.8,23.0,23,29.82,10.0,North,16.1,23.0,N/A,,Clear,10,2012-12-06 21:15:00
3:35 PM,59.0,23.0,25,29.83,10.0,North,11.5,21.9,N/A,,Clear,10,2012-12-06 21:35:00
3:55 PM,59.0,24.8,27,29.83,10.0,NNE,12.7,16.1,N/A,,Clear,30,2012-12-06 21:55:00
4:15 PM,59.0,24.8,27,29.83,10.0,NNE,11.5,20.7,N/A,,Clear,20,2012-12-06 22:15:00
4:35 PM,57.2,23.0,27,29.83,10.0,NNE,13.8,18.4,N/A,,Clear,20,2012-12-06 22:35:00
4:55 PM,55.4,23.0,29,29.85,10.0,NNE,10.4,17.3,N/A,,Clear,20,2012-12-06 22:55:00
5:15 PM,55.4,23.0,29,29.86,10.0,NNE,6.9,-,N/A,,Clear,30,2012-12-06 23:15:00
5:35 PM,53.6,24.8,33,29.88,10.0,NNE,6.9,-,N/A,,Clear,30,2012-12-06 23:35:00
5:55 PM,51.8,24.8,35,29.88,10.0,NNE,6.9,-,N/A,,Clear,30,2012-12-06 23:55:00
6:15 PM,50.0,24.8,37,29.89,10.0,North,5.8,-,N/A,,Clear,10,2012-12-07 00:15:00
6:35 PM,50.0,24.8,37,29.90,10.0,North,5.8,-,N/A,,Clear,10,2012-12-07 00:35:00
6:55 PM,46.4,23.0,40,29.91,10.0,North,8.1,-,N/A,,Clear,360,2012-12-07 00:55:00
7:15 PM,46.4,24.8,43,29.91,10.0,North,6.9,-,N/A,,Clear,10,2012-12-07 01:15:00
7:35 PM,46.4,26.6,46,29.91,10.0,North,6.9,-,N/A,,Clear,10,2012-12-07 01:35:00
7:55 PM,46.4,28.4,50,29.92,10.0,North,6.9,-,N/A,,Clear,10,2012-12-07 01:55:00
8:35 PM,44.6,28.4,53,29.92,10.0,North,6.9,-,N/A,,Clear,10,2012-12-07 02:35:00
8:55 PM,44.6,28.4,53,29.92,10.0,NNE,5.8,-,N/A,,Clear,20,2012-12-07 02:55:00
9:15 PM,44.6,28.4,53,29.92,10.0,NNE,6.9,-,N/A,,Clear,20,2012-12-07 03:15:00
9:35 PM,42.8,28.4,57,29.92,10.0,North,4.6,-,N/A,,Clear,10,2012-12-07 03:35:00
9:55 PM,42.8,28.4,57,29.93,10.0,North,3.5,-,N/A,,Clear,10,2012-12-07 03:55:00
10:15 PM,42.8,28.4,57,29.93,10.0,North,5.8,-,N/A,,Clear,360,2012-12-07 04:15:00
10:35 PM,42.8,28.4,57,29.93,10.0,North,4.6,-,N/A,,Clear,10,2012-12-07 04:35:00
10:55 PM,42.8,28.4,57,29.93,10.0,North,5.8,-,N/A,,Clear,10,2012-12-07 04:55:00
11:15 PM,41.0,28.4,61,29.94,10.0,North,3.5,-,N/A,,Clear,360,2012-12-07 05:15:00
11:35 PM,41.0,28.4,61,29.93,10.0,North,3.5,-,N/A,,Clear,10,2012-12-07 05:35:00
11:55 PM,41.0,30.2,65,29.94,10.0,North,5.8,-,N/A,,Clear,360,2012-12-07 05:55:00